Location: Angwan Shehu
(11.2514°N, 7.4613°E)
Time: 22:21:04
(UTC+00:00)

Vanguard 3 - Pass Details

Date: 02 August 2021
Orbit: 510 x 3260 km, 33.3° (Epoch: 18 September)

Event Time Altitude Azimuth Distance (km) Brightness Sun altitude
Rises 18:58:48 0° 294° (WNW) 6,007 13.5 -15.7°
Reaches altitude 10° 19:03:05 10° 303° (WNW) 5,342 12.6 -16.6°
Maximum altitude 19:18:11 35° 4° (N) 4,376 11.0 -20.1°
Drops below altitude 10° 19:35:21 10° 64° (ENE) 6,037 11.2 -23.9°
Enters shadow 19:38:28 - 69° (ENE) 6,507 11.4 -24.6°
